Weather in Kozlovka

Russia / Penza Oblast     52°56′10″N   43°12′33″E
temp.,
°C
wind,
m/s
gust,
m/s
humid.,
%
clouds,
%
prec.,
mm/h
press.,
hPa
HPBL,
m
20 january, thu
thu2000:00−20ese11100100 0.0 10199
03:00−20sse11100100 0.1 10199
06:00−17ssw22100100 0.1 101822
09:00−16s37100100 0.1 1018107
12:00−11ssw4895100 0.0 1018238
15:00−11s489570 0.1 1017227
18:00−15s4109763 0.0 1018152
21:00−15s4129875 0.0 1017195
21 january, fri
fri2100:00−15s5149681 0.0 1017265
03:00−15s5139677 0.0 1016248
06:00−15sse51496100 0.0 1015253
09:00−13sse71793100 0.0 1014381
12:00−9sse91990100 0.0 1012573
15:00−8sse102093100 0.3 1009718
18:00−7sse91793100 0.8 1008677
21:00−5sse81795100 1.5 1007651
22 january, sat
sat2200:00−4ssw6129093 0.6 1008471
03:00−11sse489649 0.7 1011110
06:00−13sse489875 0.0 1012121
09:00−12sse4109785 0.1 1015171
12:00−9sse4109586 0.0 1016287
15:00−8sse499455 0.1 1017256
18:00−14se359868 0.0 101954
21:00−14ese2399100 0.0 102033
23 january, sun
sun2300:00−10e229899 0.0 102014
03:00−11ene119990 0.1 102110
06:00−12n22100100 0.1 102313
09:00−9nne2497100 0.1 102466
12:00−4ne3694100 0.0 1025241
15:00−3ene3694100 0.0 1026360
18:00−4ene4896100 0.6 1027384
21:00−4e4896100 1.1 1028345
24 january, mon
mon2400:00−5e4994100 0.8 1029345
03:00−7e51088100 0.8 1030242
06:00−10e41090100 0.0 1030174
09:00−10e41090100 0.0 1030212
12:00−7e51188100 0.0 1030333
15:00−7e5108927 0.0 1029302
18:00−11e41092100 0.0 1030164
21:00−12ese499379 0.0 1030162